This is the latest recevied weather packets stored in our database for station/object W1LBM. If no packets are shown the sender has not sent any weather packets the latest 10 day(s).
| Time | Temp. | Humidity | Pressure | Rain* | Wind** | Luminosity | Snow |
|---|---|---|---|---|---|---|---|
| 1778008736 | 22.78° C | 55% | 1011.9 hPa | 0 mm | - | 541 W/m² | - |
| 1778008435 | 22.78° C | 55% | 1011.7 hPa | 0 mm | - | 557 W/m² | - |
| 1778008131 | 22.78° C | 55% | 1011.7 hPa | 0 mm | - | 568 W/m² | - |
| 1778007827 | 22.78° C | 55% | 1012 hPa | 0 mm | - | 576 W/m² | - |
| 1778007522 | 23.33° C | 54% | 1011.9 hPa | 0 mm | - | 586 W/m² | - |
| 1778007219 | 22.78° C | 54% | 1011.9 hPa | 0 mm | - | 593 W/m² | - |
| 1778006915 | 22.78° C | 54% | 1011.9 hPa | 0 mm | - | 600 W/m² | - |
| 1778006612 | 22.78° C | 55% | 1012 hPa | 0 mm | - | 612 W/m² | - |
| 1778006310 | 23.33° C | 53% | 1011.7 hPa | 0 mm | - | 619 W/m² | - |
| 1778006006 | 23.89° C | 52% | 1011.9 hPa | 0 mm | - | 627 W/m² | - |
| 1778005703 | 23.89° C | 51% | 1011.8 hPa | 0 mm | - | 629 W/m² | - |
| 1778005400 | 25° C | 49% | 1011.8 hPa | 0 mm | - | 638 W/m² | - |
| 1778005097 | 25° C | 49% | 1012 hPa | 0 mm | - | 644 W/m² | - |
| 1778004794 | 25° C | 48% | 1012.2 hPa | 0 mm | - | 651 W/m² | - |
| 1778004490 | 25° C | 49% | 1012.2 hPa | 0 mm | - | 654 W/m² | - |
| 1778004187 | 25° C | 48% | 1012.1 hPa | 0 mm | - | 660 W/m² | - |
| 1778003883 | 25° C | 49% | 1012.3 hPa | 0 mm | - | 662 W/m² | - |
| 1778003580 | 25° C | 51% | 1012.5 hPa | 0 mm | - | 665 W/m² | - |
| 1778003276 | 24.44° C | 51% | 1012.5 hPa | 0 mm | - | 671 W/m² | - |
| 1778002974 | 24.44° C | 51% | 1012.5 hPa | 0 mm | - | 676 W/m² | - |
| 1778002669 | 23.89° C | 53% | 1012.6 hPa | 0 mm | - | 678 W/m² | - |
| 1778002366 | 23.89° C | 53% | 1012.4 hPa | 0 mm | - | 685 W/m² | - |
| 1778002063 | 23.33° C | 54% | 1012.6 hPa | 0 mm | - | 686 W/m² | - |
| 1778001760 | 22.78° C | 56% | 1012.8 hPa | 0 mm | - | 692 W/m² | - |
| 1778001460 | 22.78° C | 58% | 1012.8 hPa | 0 mm | - | 696 W/m² | - |
* Rain latest hour (hover to see other rain measurements)
** Current wind speed in m/s (hover to see current wind gust speed)